SCP
0 0 0 0 0 0 0 0 0 0 0 0 0 0 0 0 0 0 0 0 0 0 0 0 0 0 0 0 0 0 0 0 0 0 0 0 0 0
0 0 0 0 0 0 0 0 0 0 0 0 0 0 0 0 0 0 0 0 0 0 0 0 0 0 0 0 0 0 0 0 0 0 0 0 0 0
0 0 0 0 0 0 0 0 0 0 0 0 0 0 0 0 0 0 0 0 0 0 0 0 0 0 0 0 0 0 0 0 0 0 0 0 0 0
0 0 0 0 0 0 0 0 0 0 0 0 0 0 0 0 0 0 0 0 0 0 0 0 0 0 0 0 0 0 0 0 0 0 0 0 0 0
0 0 0 0 0 0 0 0 0 0 0 0 0 0 0 0 0 0 0 0 0 0 0 0 0 0 0 0 0 0 0 0 0 0 0 0 0 0
0 0 0 0 0 0 0 0 0 0 0 0 0 0 0 0 0 0 0 0 0 0 0 0 0 0 0 0 0 0 0 0 0 0 0 0 0 0
0 0 0 0 0 0 0 0 0 0 0 0 0 0 0 0 0 0 0 0 0 0 0 0 0 0 0 0 0 0 0 0 0 0 0 0 0 0
0 0 0 0 0 0 0 0 0 0 0 0 0 0 0 0 0 0 0 0 0 0 0 0 0 0 0 0 0 0 0 0 0 0 0 0 0 0
0 0 0 0 0 0 0 0 0 0 0 0 0 0 0 0 0 0 0 0 0 0 0 0 0 0 0 0 0 0 0 0 0 0 0 0 0 0
0 0 0 0 0 0 0 0 0 0 0 0 0 0 0 0 0 0 0 0 0 0 0 0 0 0 0 0 -0 0 0 0 0 0 0 0 0 0
0 0 0 0 0 0 0 0 0 0 0 0 0 0 0 0 0 0 0 0 0 0 0 0 0 0 0 0 0 -0 0 0 0 0 0 0 0 0
0 0 0 0 0 0 0 0 0 0 0 0 0 0 -0 0 0 0 0 0 0 0 0 0 0 0 0 0 0 0 0 -0 -0 -0 -0 -0 0 0
0 0 0 0 0 0 0 0 0 0 0 0 0 0 0 0 0 0 0 0 0 0 0 0 0 0 0 0 0 0 0 0 0 0 -0 -0 0 0
0 0 0 0 0 0 0 0 0 0 0 0 0 0 0 0 0 0 0 0 0 0 0 0 0 0 0 0 0 0 0 0 0 0 0 0 0 -0
-0 0 0 0 0 0 0 0 0 0 0 0 0 0 0 0 0 0 0 0 0 0 0 0 0 0 0 0 0 0 0 0 0 0 0 0 0 0
-0 -0 0 0 0 -0 0 0 0 0 0 0 0 0 0 0 0 0 0 0 0 0 0 0 0 0 0 0 0 0 0 0 0 0 0 0 0 0
0 0 0 0 0 0 0 0 0 0 0 0 0 0 0 0 0 0 0 0 0 0 0 0 0 0 0 0 0 0 0 0 0 0 0 0 0 0
0 0 0 0 0 0 0 0 0 0 0 0 0 0 0 0 0 0 0 0 0 0 0 0 0 0 0 0 0 0 0 0 0 0 0 0 0 0
0 0 0 0 0 0 0 0 0 0 0 0 0 0 0 0 0 0 0 0 0 0 0 0 0 0 0 0 0 0 0 0 0 0 0 0 0 0
0 0 0 0 0 0 0 0 0 0 0 0 0 0 0 0 0 0 0 0 0 0 0 0 0 0 0 0 0 0 0 0 0 0 0 0 0 0
0 0 0 0 0 0 0 0 0 0 0 0 0 0 0 0 0 0 0 0 0 0 0 0 0 0 0 0 0 0 0 0 0 0 0 0 0 0
0 0 0 0 0 0 0 0 0 0 0 0 0 0 0 0 0 0 0 0 0 0 0 0 0 0 0 0 0 0 0 0 0 0 0 0 0 0
0 0 0 0 0 0 0 0 0 0 0 0 0 0 0 0 0 0 0 0 0 0 0 0 0 0 0 0 0 0 0 0 0 0 0 0 0 0
Wind_Speed_500mb
6 5 3 5 4 4 4 6 9 9 10 5 8 14 14 20 26 21 18 27 24 25 26 27 34 42 49 43 40 46 48 55 75 70 80 76 70 68
4 6 5 4 7 4 3 2 4 6 9 7 10 17 15 12 23 17 16 20 27 27 30 30 32 35 41 47 47 46 50 45 57 73 86 64 67 65
4 6 7 9 5 6 7 7 4 3 9 9 8 17 12 20 19 17 13 10 23 32 28 28 34 35 36 40 44 48 45 50 50 52 59 66 74 59
8 10 11 7 11 11 7 9 5 6 1 5 12 10 16 21 21 19 14 8 10 26 22 25 25 26 31 34 40 48 52 44 56 46 40 52 59 64
11 11 11 11 11 8 10 9 7 8 8 5 7 12 14 20 21 23 20 14 8 22 25 27 24 20 22 21 27 36 44 47 45 54 48 45 47 56
13 13 11 11 10 12 11 13 10 9 10 8 8 12 16 21 22 24 21 17 8 14 16 18 21 23 20 18 20 24 29 33 34 36 51 56 61 53
14 15 12 14 14 13 10 10 11 7 7 8 10 11 16 19 24 23 20 17 13 19 10 13 12 12 10 18 14 15 20 24 27 30 37 38 48 51
12 13 11 14 13 14 16 16 14 8 10 8 11 13 16 17 21 18 20 20 14 20 18 11 13 18 24 14 18 18 20 21 22 24 26 32 37 40
10 9 8 1 9 5 10 14 16 15 14 12 14 16 17 18 17 18 20 18 17 15 21 11 16 14 16 15 23 22 21 23 25 25 23 26 30 33
10 7 6 2 2 6 4 3 4 6 8 8 12 16 17 18 15 17 20 20 13 13 23 15 17 18 18 14 27 27 23 24 27 30 28 27 31 29
11 8 6 8 7 6 4 2 4 6 15 15 15 19 27 26 22 13 12 13 15 14 13 20 21 24 17 10 17 34 30 25 24 25 27 28 29 31
13 11 7 13 13 9 8 7 10 10 10 12 18 21 21 24 29 16 12 13 15 15 17 25 21 24 21 12 22 20 18 29 30 27 28 29 26 22
11 8 7 12 14 12 12 17 17 18 17 17 17 18 18 18 18 20 14 9 16 16 25 25 24 24 21 27 22 22 21 22 20 18 29 33 25 22
10 8 10 7 7 12 17 18 18 23 21 20 22 22 22 21 21 22 17 14 16 26 29 29 26 26 26 25 25 22 24 24 20 17 20 24 28 31
15 18 22 18 17 18 17 19 24 27 24 26 29 28 27 24 31 19 21 25 25 25 25 31 28 22 20 24 28 26 27 21 19 20 20 22 19 18
25 25 25 25 25 25 29 27 24 25 29 33 33 32 27 24 24 23 24 23 26 27 26 28 33 21 21 23 25 27 23 22 22 20 23 22 20 18
23 24 25 25 25 24 26 28 31 31 31 30 28 28 25 26 26 25 26 26 27 29 27 24 24 28 23 25 22 21 22 22 23 23 25 21 17 15
32 32 33 35 31 33 31 34 34 33 31 30 29 27 27 29 31 27 27 29 30 29 27 26 25 25 23 25 23 19 20 22 23 26 27 25 23 18
40 38 40 41 33 36 35 36 37 34 29 34 35 30 29 32 28 30 28 29 29 28 27 26 25 24 26 24 17 21 22 23 27 29 26 27 30 27
50 40 42 39 31 33 34 37 36 34 31 28 30 31 30 31 32 32 31 30 28 27 29 27 25 26 27 28 32 31 37 26 21 28 31 30 32 36
32 33 32 25 31 32 33 33 33 34 33 31 31 33 32 31 31 30 29 30 30 26 27 28 26 34 36 31 32 31 26 32 37 34 31 35 34 33
29 28 27 27 28 30 34 34 34 34 31 31 31 29 29 27 28 29 28 27 28 29 32 33 32 32 31 33 38 36 33 30 38 47 42 36 32 34
31 28 25 28 32 34 33 33 33 32 31 31 31 28 26 27 27 28 27 27 29 31 34 36 33 31 34 36 39 39 36 34 35 37 40 43 42 49
Wind_Direction_500mb
339 325 30 329 325 321 312 295 280 290 250 323 292 322 320 322 312 303 313 299 288 287 283 275 263 260 256 242 253 265 260 253 245 240 239 236 236 240
16 341 69 15 16 19 27 356 316 282 276 292 317 312 340 334 306 319 314 328 310 286 275 276 271 266 261 254 256 259 261 265 261 249 258 240 235 236
15 30 36 79 79 55 58 50 27 338 277 295 327 323 353 345 331 322 320 327 300 300 292 286 277 273 265 258 256 256 263 262 259 247 247 244 243 248
76 64 66 53 61 80 43 66 56 21 83 337 319 345 351 0 357 353 341 301 272 299 310 305 302 290 275 262 253 250 255 265 247 253 255 245 251 243
96 85 71 60 72 70 85 73 38 37 18 16 8 356 8 9 12 5 7 356 324 337 335 322 309 312 302 286 266 260 257 250 251 254 255 257 259 249
100 92 80 73 71 69 58 51 44 50 28 32 19 8 5 3 7 6 10 10 328 346 329 335 338 331 315 307 287 276 271 268 260 264 253 250 250 247
110 92 89 85 78 101 95 60 52 53 31 14 5 355 354 5 1 1 2 4 345 1 359 325 339 311 8 329 297 294 286 276 270 264 254 256 247 250
120 114 91 71 73 82 82 69 60 65 28 34 9 10 1 357 352 4 0 8 356 337 2 334 357 298 282 326 315 304 306 303 299 285 272 261 257 263
141 121 107 358 73 64 77 74 54 59 57 48 24 6 356 348 346 353 348 358 348 348 353 337 337 341 321 317 323 314 307 298 297 299 294 288 282 273
175 163 163 194 136 113 116 91 53 31 44 33 18 9 354 344 330 329 321 343 340 335 353 345 335 327 317 280 326 333 325 316 301 293 290 289 285 287
213 209 214 212 208 155 142 231 307 317 303 333 353 354 360 3 343 341 328 329 333 339 326 0 340 336 324 281 294 323 340 328 320 313 304 297 291 289
234 233 253 217 223 221 231 267 285 300 302 312 322 330 348 345 347 347 326 320 321 327 322 346 339 341 332 298 318 317 313 317 330 329 329 322 317 300
203 242 248 266 227 243 269 277 263 271 295 295 305 313 314 328 335 324 312 305 302 299 314 328 324 325 313 306 310 315 317 318 323 318 325 325 325 331
206 225 238 266 255 259 270 282 282 273 285 284 288 293 307 307 318 317 302 294 291 291 299 304 312 314 307 305 304 305 312 314 312 310 316 321 338 336
215 236 242 267 273 277 284 282 277 276 279 279 281 285 288 293 301 308 312 314 331 317 305 294 309 304 300 297 300 304 308 314 306 311 314 314 314 308
244 253 264 269 265 266 270 284 286 286 279 279 280 281 281 278 292 297 300 298 298 305 297 295 306 309 302 295 295 295 298 298 297 305 300 321 313 307
240 254 262 272 280 281 287 287 288 286 283 287 280 276 269 279 280 285 290 296 295 302 301 297 292 304 298 292 294 291 291 292 296 295 312 313 313 310
250 255 264 260 274 283 288 290 289 283 274 275 272 269 275 279 281 277 286 289 293 297 296 296 295 300 302 298 277 294 287 289 292 291 304 302 300 296
258 262 268 268 266 274 283 289 286 284 280 274 272 268 276 280 274 279 281 284 289 291 291 292 291 292 297 295 295 293 290 289 289 291 293 289 291 291
265 268 268 266 262 272 285 289 281 280 276 271 273 272 276 274 272 274 276 281 285 287 291 290 286 284 283 290 290 284 287 293 289 289 291 289 286 294
264 265 274 265 265 273 284 285 278 277 273 272 272 274 272 269 268 270 274 277 280 288 290 289 287 280 282 290 289 292 294 291 294 289 292 292 292 292
259 264 270 265 266 277 283 279 274 277 275 276 275 271 264 261 264 271 272 271 275 282 286 289 289 289 284 281 283 287 289 285 293 296 298 297 285 283
255 261 258 262 274 280 279 272 271 272 271 271 270 263 260 264 268 270 270 272 278 283 288 292 292 287 283 282 283 287 288 289 292 287 283 290 284 298
Wind_Speed_850mb
6 5 3 5 4 4 4 6 9 9 10 5 8 14 14 20 26 21 18 27 24 25 26 27 34 42 49 43 40 46 48 55 75 70 80 76 70 68
4 6 5 4 7 4 3 2 4 6 9 7 10 17 15 12 23 17 16 20 27 27 30 30 32 35 41 47 47 46 50 45 57 73 86 64 67 65
4 6 7 9 5 6 7 7 4 3 9 9 8 17 12 20 19 17 13 10 23 32 28 28 34 35 36 40 44 48 45 50 50 52 59 66 74 59
8 10 11 7 11 11 7 9 5 6 1 5 12 10 16 21 21 19 14 8 10 26 22 25 25 26 31 34 40 48 52 44 56 46 40 52 59 64
11 11 11 11 11 8 10 9 7 8 8 5 7 12 14 20 21 23 20 14 8 22 25 27 24 20 22 21 27 36 44 47 45 54 48 45 47 56
13 13 11 11 10 12 11 13 10 9 10 8 8 12 16 21 22 24 21 17 8 14 16 18 21 23 20 18 20 24 29 33 34 36 51 56 61 53
14 15 12 14 14 13 10 10 11 7 7 8 10 11 16 19 24 23 20 17 13 19 10 13 12 12 10 18 14 15 20 24 27 30 37 38 48 51
12 13 11 14 13 14 16 16 14 8 10 8 11 13 16 17 21 18 20 20 14 20 18 11 13 18 24 14 18 18 20 21 22 24 26 32 37 40
10 9 8 1 9 5 10 14 16 15 14 12 14 16 17 18 17 18 20 18 17 15 21 11 16 14 16 15 23 22 21 23 25 25 23 26 30 33
10 7 6 2 2 6 4 3 4 6 8 8 12 16 17 18 15 17 20 20 13 13 23 15 17 18 18 14 27 27 23 24 27 30 28 27 31 29
11 8 6 8 7 6 4 2 4 6 15 15 15 19 27 26 22 13 12 13 15 14 13 20 21 24 17 10 17 34 30 25 24 25 27 28 29 31
13 11 7 13 13 9 8 7 10 10 10 12 18 21 21 24 29 16 12 13 15 15 17 25 21 24 21 12 22 20 18 29 30 27 28 29 26 22
11 8 7 12 14 12 12 17 17 18 17 17 17 18 18 18 18 20 14 9 16 16 25 25 24 24 21 27 22 22 21 22 20 18 29 33 25 22
10 8 10 7 7 12 17 18 18 23 21 20 22 22 22 21 21 22 17 14 16 26 29 29 26 26 26 25 25 22 24 24 20 17 20 24 28 31
15 18 22 18 17 18 17 19 24 27 24 26 29 28 27 24 31 19 21 25 25 25 25 31 28 22 20 24 28 26 27 21 19 20 20 22 19 18
25 25 25 25 25 25 29 27 24 25 29 33 33 32 27 24 24 23 24 23 26 27 26 28 33 21 21 23 25 27 23 22 22 20 23 22 20 18
23 24 25 25 25 24 26 28 31 31 31 30 28 28 25 26 26 25 26 26 27 29 27 24 24 28 23 25 22 21 22 22 23 23 25 21 17 15
32 32 33 35 31 33 31 34 34 33 31 30 29 27 27 29 31 27 27 29 30 29 27 26 25 25 23 25 23 19 20 22 23 26 27 25 23 18
40 38 40 41 33 36 35 36 37 34 29 34 35 30 29 32 28 30 28 29 29 28 27 26 25 24 26 24 17 21 22 23 27 29 26 27 30 27
50 40 42 39 31 33 34 37 36 34 31 28 30 31 30 31 32 32 31 30 28 27 29 27 25 26 27 28 32 31 37 26 21 28 31 30 32 36
32 33 32 25 31 32 33 33 33 34 33 31 31 33 32 31 31 30 29 30 30 26 27 28 26 34 36 31 32 31 26 32 37 34 31 35 34 33
29 28 27 27 28 30 34 34 34 34 31 31 31 29 29 27 28 29 28 27 28 29 32 33 32 32 31 33 38 36 33 30 38 47 42 36 32 34
31 28 25 28 32 34 33 33 33 32 31 31 31 28 26 27 27 28 27 27 29 31 34 36 33 31 34 36 39 39 36 34 35 37 40 43 42 49
Wind_Direction_850mb
339 325 30 329 325 321 312 295 280 290 250 323 292 322 320 322 312 303 313 299 288 287 283 275 263 260 256 242 253 265 260 253 245 240 239 236 236 240
16 341 69 15 16 19 27 356 316 282 276 292 317 312 340 334 306 319 314 328 310 286 275 276 271 266 261 254 256 259 261 265 261 249 258 240 235 236
15 30 36 79 79 55 58 50 27 338 277 295 327 323 353 345 331 322 320 327 300 300 292 286 277 273 265 258 256 256 263 262 259 247 247 244 243 248
76 64 66 53 61 80 43 66 56 21 83 337 319 345 351 0 357 353 341 301 272 299 310 305 302 290 275 262 253 250 255 265 247 253 255 245 251 243
96 85 71 60 72 70 85 73 38 37 18 16 8 356 8 9 12 5 7 356 324 337 335 322 309 312 302 286 266 260 257 250 251 254 255 257 259 249
100 92 80 73 71 69 58 51 44 50 28 32 19 8 5 3 7 6 10 10 328 346 329 335 338 331 315 307 287 276 271 268 260 264 253 250 250 247
110 92 89 85 78 101 95 60 52 53 31 14 5 355 354 5 1 1 2 4 345 1 359 325 339 311 8 329 297 294 286 276 270 264 254 256 247 250
120 114 91 71 73 82 82 69 60 65 28 34 9 10 1 357 352 4 0 8 356 337 2 334 357 298 282 326 315 304 306 303 299 285 272 261 257 263
141 121 107 358 73 64 77 74 54 59 57 48 24 6 356 348 346 353 348 358 348 348 353 337 337 341 321 317 323 314 307 298 297 299 294 288 282 273
175 163 163 194 136 113 116 91 53 31 44 33 18 9 354 344 330 329 321 343 340 335 353 345 335 327 317 280 326 333 325 316 301 293 290 289 285 287
213 209 214 212 208 155 142 231 307 317 303 333 353 354 360 3 343 341 328 329 333 339 326 0 340 336 324 281 294 323 340 328 320 313 304 297 291 289
234 233 253 217 223 221 231 267 285 300 302 312 322 330 348 345 347 347 326 320 321 327 322 346 339 341 332 298 318 317 313 317 330 329 329 322 317 300
203 242 248 266 227 243 269 277 263 271 295 295 305 313 314 328 335 324 312 305 302 299 314 328 324 325 313 306 310 315 317 318 323 318 325 325 325 331
206 225 238 266 255 259 270 282 282 273 285 284 288 293 307 307 318 317 302 294 291 291 299 304 312 314 307 305 304 305 312 314 312 310 316 321 338 336
215 236 242 267 273 277 284 282 277 276 279 279 281 285 288 293 301 308 312 314 331 317 305 294 309 304 300 297 300 304 308 314 306 311 314 314 314 308
244 253 264 269 265 266 270 284 286 286 279 279 280 281 281 278 292 297 300 298 298 305 297 295 306 309 302 295 295 295 298 298 297 305 300 321 313 307
240 254 262 272 280 281 287 287 288 286 283 287 280 276 269 279 280 285 290 296 295 302 301 297 292 304 298 292 294 291 291 292 296 295 312 313 313 310
250 255 264 260 274 283 288 290 289 283 274 275 272 269 275 279 281 277 286 289 293 297 296 296 295 300 302 298 277 294 287 289 292 291 304 302 300 296
258 262 268 268 266 274 283 289 286 284 280 274 272 268 276 280 274 279 281 284 289 291 291 292 291 292 297 295 295 293 290 289 289 291 293 289 291 291
265 268 268 266 262 272 285 289 281 280 276 271 273 272 276 274 272 274 276 281 285 287 291 290 286 284 283 290 290 284 287 293 289 289 291 289 286 294
264 265 274 265 265 273 284 285 278 277 273 272 272 274 272 269 268 270 274 277 280 288 290 289 287 280 282 290 289 292 294 291 294 289 292 292 292 292
259 264 270 265 266 277 283 279 274 277 275 276 275 271 264 261 264 271 272 271 275 282 286 289 289 289 284 281 283 287 289 285 293 296 298 297 285 283
255 261 258 262 274 280 279 272 271 272 271 271 270 263 260 264 268 270 270 272 278 283 288 292 292 287 283 282 283 287 288 289 292 287 283 290 284 298